Weather in Marinka

Ukraine / Donetsk Region     47˚56′29″N   37˚30′14″E
temp.,
°C
wind,
m/s
gust,
m/s
humid.,
%
clouds,
%
prec.,
mm/h
press.,
hPa
HPBL,
m
1 december, tue
tue123:00+4˚ese71373100 0.0 1025688
02:00+1˚ese6137697 0.0 1025645
05:00+1˚ese7147980 0.0 1024633
08:00ese7157968 0.0 1025621
11:00+2˚ese8137378 0.0 1025774
14:00+2˚ese8127489 0.0 1025958
17:00+2˚ese71374100 0.0 1025867
20:00+1˚ese71279100 0.0 1026725
2 december, wed
wed223:00e71180100 0.0 1027542
02:00ese71181100 0.0 1027528
05:00ese61282100 0.0 1027535
08:00+1˚ese71281100 0.0 1028556
11:00+2˚ese7117392 0.0 1028624
14:00+2˚ese6107378 0.0 1027743
17:00+2˚ese6117899 0.0 1028629
20:00+1˚ese71381100 0.0 1028483
3 december, thu
thu323:00+1˚ese61287100 0.1 1028451
02:00+1˚ese71287100 0.6 1028432
05:00ese61188100 0.6 1027451
08:00+1˚se61186100 0.8 1028477
11:00+1˚ese5987100 0.3 1028446
14:00+2˚ese4887100 0.3 1027383
17:00+2˚ese5987100 0.0 1027406
20:00+2˚ese51085100 0.1 1027473
4 december, fri
fri423:00+2˚ese51085100 0.0 1027476
02:00+2˚ese5986100 0.0 1027464
05:00+2˚ese51086100 0.0 1026513
08:00+2˚ese51086100 0.0 1027536
11:00+3˚ese6982100 0.0 1027625
14:00+3˚ese5978100 0.0 1027576
17:00+2˚ese6107998 0.0 1027538
20:00+2˚ese6117999 0.0 1028587
5 december, sat
sat523:00+2˚ese61180100 0.0 1028497
02:00+1˚ese5107499 0.0 1029439
05:00e5117565 0.0 1029425
08:00−1˚e5117632 0.0 1030411
11:00+1˚e69671 0.0 1030449
14:00+3˚e69630 0.0 1030533
17:00e612650 0.0 1030471
20:00−2˚ese612580 0.0 1031427